Capo Bellavista, Italy

4:22 PM CEST on June 27, 2017 (GMT +0200)
Capo Bellavista

Weather History for LIEB - August, 2013

Change the Weather History Date:

Thursday, August 22, 2013

  Actual Average Record
Temperature  
Mean Temperature 78 °F -  
Max Temperature 84 °F 80 °F - ()
Min Temperature 73 °F 67 °F - ()
Cooling Degree Days 14    
Growing Degree Days 28 (Base 50)    
Moisture  
Dew Point 70 °F    
Average Humidity 75    
Maximum Humidity 94    
Minimum Humidity 53    
Precipitation  
Precipitation 0.00 in 0.05 in - ()
Sea Level Pressure  
Sea Level Pressure 29.96 in    
Wind  
Wind Speed 8 mph ()    
Max Wind Speed 20 mph    
Max Gust Speed -    
Visibility 6.4 miles    
Events Thunderstorm    
T = Trace of Precipitation, MM = Missing Value Source: Averaged Metar Reports

Daily Weather History Graph

Daily Weather History Graph

Search for Another Location

Airport or City:

Trip Planner

Search our weather history database for the weather conditions in past years. The results will help you decide how hot, cold, wet, or windy it might be!

Date:

Astronomy

Aug. 22, 2013 Rise Set
Actual Time 6:39 AM CEST 8:07 PM CEST
Civil Twilight 6:11 AM CEST 8:36 PM CEST
Nautical Twilight 5:36 AM CEST 9:10 PM CEST
Astronomical Twilight 5:00 AM CEST 9:46 PM CEST
Moon 8:42 PM CEST (8/22) 8:09 AM CEST (8/22)
Length of Visible Light 14h 25m
Length of Day
13h 28m
Full, 98% of the Moon is Illuminated
Aug 22
Full
Aug 28
Last Quarter
Sep 5
New
Sep 12
First Quarter
Sep 19
Full

Hourly Weather History & Observations

Time (CEST) Temp. Heat Index Dew Point Humidity Pressure Visibility Wind Dir Wind Speed Gust Speed Precip Events Conditions
12:55 AM 73.4 °F - 68.0 °F 83% 30.01 in - NNW 8.1 mph - N/A   Clear
3:55 AM 73.4 °F - 62.6 °F 69% 29.98 in 6.2 mi NW 6.9 mph - N/A   Scattered Clouds
4:55 AM 75.2 °F - 60.8 °F 61% 29.95 in 6.2 mi NW 5.8 mph - N/A   Scattered Clouds
5:55 AM 75.2 °F - 59.0 °F 57% 29.95 in 6.2 mi NW 4.6 mph - N/A   Partly Cloudy
6:04 AM 75.2 °F - 59.0 °F 57% 29.95 in 6.2 mi North 4.6 mph - N/A Thunderstorm Thunderstorm
6:55 AM 75.2 °F - 59.0 °F 57% 29.95 in 6.2 mi NE 5.8 mph - N/A Thunderstorm Thunderstorm
7:26 AM 75.2 °F - 60.8 °F 61% 29.95 in 6.2 mi NNE 8.1 mph - N/A   Partly Cloudy
7:55 AM 77.0 °F - 62.6 °F 61% 29.95 in 6.2 mi NNE 8.1 mph - N/A   Partly Cloudy
8:00 AM 77 °F - 63 °F 53% 29.95 in 12 mi NNE 8.1 mph - - Thunderstorm Light Thunderstorm
8:55 AM 82.4 °F 84.6 °F 66.2 °F 58% 29.95 in 6.2 mi NNE 11.5 mph - N/A   Partly Cloudy
9:55 AM 80.6 °F 84.6 °F 71.6 °F 74% 29.95 in 6.2 mi NE 19.6 mph - N/A   Partly Cloudy
10:55 AM 82.4 °F 88.2 °F 73.4 °F 74% 29.95 in 6.2 mi NE 16.1 mph - N/A   Partly Cloudy
11:55 AM 84.2 °F 92.3 °F 75.2 °F 74% 29.98 in 6.2 mi NE 17.3 mph - N/A   Partly Cloudy
12:55 PM 84.2 °F 94.1 °F 77.0 °F 79% 29.98 in 6.2 mi NE 17.3 mph - N/A   Partly Cloudy
1:55 PM 82.4 °F 90.9 °F 77.0 °F 84% 29.98 in 6.2 mi ENE 15.0 mph - N/A   Partly Cloudy
2:55 PM 80.6 °F 87.1 °F 77.0 °F 89% 29.98 in 6.2 mi ENE 18.4 mph - N/A   Partly Cloudy
3:55 PM 82.4 °F 90.9 °F 77.0 °F 84% 29.98 in 6.2 mi East 10.4 mph - N/A   Partly Cloudy
4:55 PM 82.4 °F 90.9 °F 77.0 °F 84% 29.95 in 6.2 mi East 9.2 mph - N/A   Partly Cloudy
5:55 PM 82.4 °F 90.9 °F 77.0 °F 84% 29.95 in 6.2 mi East 8.1 mph - N/A   Partly Cloudy
6:55 PM 80.6 °F 87.1 °F 77.0 °F 89% 29.95 in 6.2 mi East 5.8 mph - N/A   Partly Cloudy
7:55 PM 78.8 °F - 75.2 °F 89% 29.92 in 6.2 mi ESE 4.6 mph - N/A   Partly Cloudy
8:00 PM 79 °F - 76 °F 87% 29.92 in 6 mi ESE 4.6 mph - -   Scattered Clouds
8:55 PM 78.8 °F - 77.0 °F 94% 29.95 in 6.2 mi SE 2.3 mph - N/A   Partly Cloudy
9:55 PM 78.8 °F - 75.2 °F 89% 29.95 in 6.2 mi SE 4.6 mph - N/A   Partly Cloudy
11:55 PM 77.0 °F - 73.4 °F 89% 29.95 in - WNW 3.5 mph - N/A   Clear